Tracking 29018 objects as of 15-Jun-2024
HD Live streaming from Space Station
objects crossing your sky now

STARLINK-5610

Track STARLINK-5610 now!
10-day predictions
STARLINK-5610 is classified as:


NORAD ID: 57244
Int'l Code: 2023-094AC
Perigee: 565.4 km
Apogee: 567.1 km
Inclination: 43.0 °
Period: 95.8 minutes
Semi major axis: 6937 km
RCS: Unknown
Launch date: July 7, 2023
Source: United States (US)
Launch site: AIR FORCE WESTERN TEST RANGE (AFWTR)
Your satellite tracking list
Your tracking list is empty




NASA's NSSDC Master Catalog

Two Line Element Set (TLE):
1 57244U 23094AC  24166.40747338  .00001021  00000-0  90688-4 0  9994
2 57244  43.0013 218.7678 0001219 264.0740  95.9963 15.02530473 52008
Source of the keplerian elements: AFSPC